Content
SEND FEEDBACK

Daily
Averages
Monthly
Summary
United States of America

LAKE WORTH, FLORIDA


Home > North America > United States > Florida
Elevation: 0 feet     Latitude: 26 41N     Longitude: 080 16W

WEATHER
 
SELECT A DAY
Number of Records: 194,318;   Date Range: 1/1/95 - 11/23/14
 
SHARE

PRINT THIS DATA

[ ← Previous Day ]
WEATHER ALMANAC - FEBRUARY 5, 2013
[ Next Day → ]
[ °C ]   °F
Weather ElementAverageHighLow
Temperature66.6 °F77 °F (11:53 am)52 °F (6:53 am)
Dewpoint54.8 °F61 °F (8:53 pm)48 °F (5:53 am)
Humidity67.5 %87 % (1:53 am)43 % (11:53 am)
Barometer30.04 in30.09 in (9:53 am)30.01 in (3:53 pm)
Wind Speed4.3 mph12.7 mph (4:53 pm)
Wind Gust17.3 mph (11:53 am)
Weather ElementAverage
Visibility10 mi
Wind DirectionENE (78.3 °)

Weather ElementTotal
Precipitation---
Heating Degree Days0.5 (Base 65)
Growing Degree Days14.5 (Base 50)
Averaged from 23 records on February 5, 2013
WEATHER CONDITIONS BREAKOUT
WIND DIRECTION BREAKOUT
WEATHER BY HOUR - FEBRUARY 5, 2013
[ °C ]   °F
Local TimeTemperatureDewpointHumidityBarometerVisibilityWind DirectionWind SpeedGust SpeedPrecipitationEventsConditions
1:53 AM55.9 °F52.0 °F87 %30.06 in10.0 miCalmPartly Cloudy
2:53 AM55.0 °F50.0 °F83 %30.04 in10.0 miCalmPartly Cloudy
3:53 AM54.0 °F48.9 °F83 %30.04 in10.0 miCalmPartly Cloudy
4:53 AM55.0 °F48.9 °F80 %30.04 in10.0 miCalmPartly Cloudy
5:53 AM54.0 °F48.0 °F80 %30.04 in10.0 miCalmPartly Cloudy
6:53 AM52.0 °F48.0 °F86 %30.06 in10.0 miCalmScattered Clouds
7:53 AM57.0 °F50.0 °F77 %30.07 in10.0 miCalmScattered Clouds
8:53 AM68.0 °F52.0 °F56 %30.07 in10.0 miCalmScattered Clouds
9:53 AM71.6 °F53.6 °F53 %30.09 in10.0 miSE (130°)4.6 mphScattered Clouds
10:53 AM75.2 °F51.8 °F44 %30.09 in10.0 miSouth (180°)4.6 mphScattered Clouds
11:53 AM77.0 °F53.1 °F43 %30.07 in10.0 miSE (130°)8.1 mph17.3 mphScattered Clouds
12:53 PM77.0 °F55.0 °F47 %30.05 in10.0 miSE (130°)9.2 mphMostly Cloudy
1:53 PM75.0 °F55.9 °F51 %30.03 in10.0 miESE (120°)8.1 mphMostly Cloudy
2:53 PM75.0 °F57.0 °F53 %30.02 in10.0 miSE (140°)11.5 mphScattered Clouds
3:53 PM73.9 °F57.9 °F57 %30.01 in10.0 miSE (140°)11.5 mphScattered Clouds
4:53 PM73.9 °F59.0 °F59 %30.01 in10.0 miSSE (150°)12.7 mphScattered Clouds
5:53 PM72.0 °F57.9 °F61 %30.01 in10.0 miSE (140°)9.2 mphScattered Clouds
6:53 PM71.1 °F59.0 °F66 %30.01 in10.0 miESE (120°)4.6 mphScattered Clouds
7:53 PM70.0 °F60.1 °F71 %30.03 in10.0 miSE (140°)5.8 mphPartly Cloudy
8:53 PM70.0 °F61.0 °F73 %30.04 in10.0 miSE (140°)4.6 mphPartly Cloudy
9:53 PM69.1 °F61.0 °F75 %30.04 in10.0 miSE (140°)3.5 mphPartly Cloudy
10:53 PM66.9 °F61.0 °F81 %30.06 in10.0 miCalmScattered Clouds
11:53 PM63.0 °F59.0 °F87 %30.05 in10.0 miCalmScattered Clouds
Hourly data recorded from KPBI, located miles away from Lake Worth, Florida







STORIES FROM OUR PARTNERS